Location: Stuttgart
(48.8069°N, 9.1544°E)
Time: 02:51:53
(UTC+01:00)

Tiangong 2 - Visible Passes

Search period start: 23 November 2017 00:00
Search period end: 03 December 2017 00:00
Orbit: 386 x 392 km, 42.8° (Epoch: 22 November)

Date Brightness Start Highest point End Pass type
(mag) Time Alt. Az. Time Alt. Az. Time Alt. Az.
27 Nov 4.1 06:50:15 10° S 06:52:02 14° SSE 06:53:49 10° ESE visible
29 Nov 3.6 06:29:47 10° SSW 06:32:08 19° SSE 06:34:31 10° ESE visible
30 Nov 3.7 05:33:26 14° S 05:34:07 15° SSE 05:35:58 10° ESE visible
30 Nov 3.0 07:07:35 10° SW 07:10:21 26° S 07:13:07 10° ESE visible
01 Dec 3.1 06:10:29 15° SSW 06:12:15 24° S 06:14:54 10° ESE visible
02 Dec 3.8 05:15:07 17° SE 05:15:07 17° SE 05:16:33 10° ESE visible
02 Dec 2.8 06:47:41 10° WSW 06:50:29 27° S 06:53:16 10° ESE visible
